CAPE
0 0 0 0 0 0 0 0 15 8 0 0 7 7 9 13 4 0 0 0 0 0 0 0 0 0 0 0 0 0 0 0 0 4 0 0 0 0 0 0 0 0 0 0 0 0 0 0 0 0 0 0 0 0
0 0 0 0 0 0 0 3 18 5 2 4 8 9 13 16 18 3 1 0 1 0 0 0 0 0 0 0 0 0 0 0 0 1 2 4 6 0 0 0 0 0 0 0 0 0 0 0 0 0 0 0 0 0
0 0 0 0 0 0 0 0 6 3 7 6 5 3 23 25 33 0 0 0 4 5 0 0 0 0 0 0 0 0 0 0 0 0 0 0 0 2 0 0 0 1 0 0 0 0 0 0 0 0 0 0 0 0
0 0 0 0 0 0 0 0 0 1 2 4 0 4 22 29 3 2 0 1 1 0 0 0 0 0 0 0 0 0 0 0 0 0 0 0 0 0 0 0 0 0 0 0 0 0 0 0 0 0 0 0 0 0
0 0 0 0 0 0 0 0 0 0 2 1 7 13 26 19 0 0 0 0 0 0 0 0 0 0 0 0 0 0 0 0 0 0 0 0 0 0 0 0 0 0 0 0 0 0 0 0 0 0 0 0 0 0
0 0 0 0 0 0 0 0 0 0 0 4 12 26 6 0 0 0 0 0 0 0 0 0 0 0 0 0 0 0 0 0 0 0 0 0 0 0 0 0 0 0 0 0 2 0 0 0 0 0 0 0 0 0
0 0 0 0 0 0 0 0 0 0 0 0 4 1 0 1 0 0 0 0 0 0 0 0 0 0 0 0 0 0 0 0 0 0 0 0 0 10 1 0 0 0 0 0 0 12 0 0 0 0 0 0 0 0
0 0 0 0 0 0 0 0 0 0 0 0 0 0 0 0 0 0 0 0 0 0 0 0 0 0 0 0 0 0 0 0 0 0 0 0 0 0 0 0 0 0 0 0 0 0 2 0 0 0 0 0 0 0
0 0 0 0 0 0 0 0 0 0 0 0 0 0 0 0 0 0 0 4 1 0 0 0 0 0 0 0 3 0 0 0 0 0 0 0 0 0 0 0 0 2 16 1 0 0 0 0 0 0 0 0 0 0
0 0 0 0 0 0 0 0 0 0 0 0 0 0 0 0 0 0 0 1 1 1 0 0 0 0 2 2 1 0 1 0 0 0 0 0 0 0 0 0 4 8 0 4 0 0 0 0 0 0 0 0 0 0
0 0 0 0 0 0 0 0 0 0 0 0 0 0 0 0 0 0 0 0 0 0 0 0 0 1 0 0 0 3 0 0 0 0 0 0 0 0 1 0 0 0 0 0 0 0 0 0 0 0 0 0 0 0
0 0 0 0 0 0 0 0 0 0 0 0 0 0 0 0 0 0 0 0 0 0 0 0 0 0 0 0 1 1 0 0 0 0 0 0 0 0 0 0 0 0 0 0 0 0 0 0 0 0 0 0 0 0
0 0 0 0 0 0 0 0 0 0 0 0 0 0 0 0 0 0 0 0 0 0 0 0 0 0 0 0 1 0 0 2 0 1 0 1 0 0 0 0 0 0 0 1 0 0 0 0 0 0 0 0 0 1
0 0 0 0 0 0 0 0 0 0 0 0 0 0 0 0 0 0 0 0 0 0 0 0 0 0 0 0 1 0 0 0 0 0 0 0 1 0 0 0 0 0 0 0 1 0 0 0 0 0 0 0 0 0
0 0 0 0 0 0 0 0 0 0 0 0 0 0 0 0 0 0 0 0 0 0 0 0 0 0 0 0 0 0 0 0 0 1 4 0 1 0 0 0 0 0 0 0 0 0 0 0 0 0 0 0 0 0
0 1 1 0 0 0 0 0 0 0 0 0 0 0 0 0 0 0 0 0 0 0 0 0 0 0 0 0 0 0 0 0 1 0 1 0 0 0 0 0 0 0 0 0 0 0 0 0 0 0 0 0 0 0
0 0 0 5 3 0 0 0 0 0 0 0 0 0 0 0 0 0 0 0 0 0 0 0 0 0 0 0 0 0 0 0 0 0 0 0 0 0 0 0 0 0 0 0 0 0 0 0 0 0 0 0 0 0
0 0 0 0 0 0 0 0 0 0 0 0 0 0 0 0 0 0 0 0 0 0 0 0 0 0 0 0 0 0 0 0 0 0 0 0 0 0 0 0 0 0 0 0 1 0 0 0 0 0 0 0 0 0
0 0 0 0 0 0 0 0 0 0 0 0 0 0 0 0 0 0 0 0 0 0 0 0 0 0 0 0 0 0 0 0 0 0 0 0 0 0 0 0 0 0 0 0 0 0 0 0 0 0 0 0 0 0
0 1 0 0 0 0 0 0 0 0 0 0 0 0 0 0 0 0 0 0 0 0 0 0 0 0 0 0 0 0 0 0 0 0 0 0 0 0 0 0 0 0 0 0 0 0 0 0 0 0 0 0 0 0
6 4 0 1 1 0 0 0 0 0 0 0 0 0 0 0 0 0 0 0 1 0 0 0 0 0 0 0 0 0 0 0 0 0 0 0 0 0 0 0 0 0 0 0 0 0 0 0 0 0 0 0 0 0
0 0 0 1 0 0 0 0 0 0 0 0 0 0 0 0 0 0 0 0 0 0 0 0 0 0 0 0 0 0 0 0 0 0 0 0 0 0 0 0 0 0 0 0 0 0 0 0 0 0 0 0 0 0
0 0 0 0 3 0 0 0 0 0 0 0 0 0 0 0 0 0 0 0 0 0 0 0 0 0 0 0 0 0 0 0 0 0 0 0 0 0 0 0 0 0 0 0 0 0 0 0 0 0 0 0 0 0
0 1 0 0 0 0 0 0 0 0 0 0 0 0 0 0 0 0 0 0 0 0 0 0 0 0 0 0 0 0 0 0 0 0 0 0 0 0 0 0 0 0 0 0 0 0 0 0 0 0 0 0 0 0
0 0 0 0 0 0 0 0 0 0 0 0 0 0 0 0 0 0 0 0 0 0 0 0 0 0 0 0 0 0 0 0 0 0 0 0 0 0 0 0 0 0 0 0 0 0 0 0 0 0 0 0 0 0
0 0 0 0 0 0 0 0 0 0 0 0 0 0 0 0 0 0 0 0 0 0 0 0 0 0 0 0 0 0 0 0 0 0 0 0 0 0 0 0 0 0 0 0 0 0 0 0 0 0 0 0 0 0
0 0 0 0 0 0 0 0 0 0 0 0 0 0 0 0 0 0 0 0 0 0 0 0 0 0 0 0 0 0 0 0 0 0 0 0 0 0 0 0 0 0 0 0 0 0 0 0 0 0 0 0 0 0
0 0 0 0 0 0 0 0 0 0 0 0 0 0 0 0 0 0 0 0 0 0 0 0 0 0 0 0 0 0 0 0 0 0 0 0 0 0 0 0 0 0 0 0 0 0 0 0 0 0 0 0 0 0
0 0 0 0 0 0 0 0 0 0 0 0 0 0 0 0 0 0 0 0 0 0 0 0 0 0 0 0 0 0 0 0 0 0 0 0 0 0 0 0 0 0 0 0 0 0 0 0 0 0 0 0 0 0
0 0 0 0 0 0 0 0 0 0 0 0 0 0 0 0 0 0 0 0 0 0 0 0 0 0 0 0 0 0 0 0 0 0 0 0 0 0 0 0 0 0 0 0 0 0 0 0 0 0 0 0 0 0
0 0 0 0 0 0 0 0 0 0 0 0 0 0 0 0 0 0 0 0 0 0 0 0 0 0 0 0 0 0 0 0 0 0 0 0 0 0 0 0 0 0 0 0 0 0 0 0 0 0 0 0 0 0
0 0 0 0 0 0 0 0 0 0 0 0 0 0 0 0 0 0 0 0 0 0 0 0 0 0 0 0 0 0 0 0 0 0 0 0 0 0 0 0 0 0 0 0 0 0 0 0 0 0 0 0 0 0
0 0 0 0 0 0 0 0 0 0 0 0 0 0 0 0 0 0 0 0 0 0 0 0 0 0 0 0 0 0 0 0 0 0 0 0 0 0 0 0 0 0 0 0 0 0 0 0 0 0 0 0 0 0
CIN
0 0 0 0 0 0 0 0 -2 -3 0 0 0 -2 -1 -3 -2 -1 -4 0 0 0 0 0 0 0 0 0 0 0 0 -2 -5 -1 0 0 0 -2 0 0 0 0 0 0 -3 -1 0 0 0 0 0 0 0 0
0 0 0 0 0 0 0 -11 0 -2 -18 -20 -1 -3 -5 -6 0 -4 -1 0 -5 -3 0 0 0 0 0 0 0 0 0 0 0 -3 -8 -21 -5 0 0 0 0 0 0 0 0 0 0 0 0 0 0 0 0 0
0 0 0 0 0 0 0 0 -1 -20 -17 -8 -12 -7 -1 -6 0 -1 0 -1 -3 0 0 0 0 0 0 0 0 0 0 0 0 0 0 0 -1 -13 0 0 0 -16 0 0 0 0 0 0 0 0 0 0 0 0
0 0 0 0 0 0 0 0 0 -25 -11 -7 -3 -9 -3 -1 -1 0 -1 -6 -2 -2 0 0 0 0 0 0 0 0 0 0 0 0 0 0 0 0 0 0 0 0 0 0 0 0 0 0 0 0 0 0 0 0
0 0 0 0 0 0 0 0 0 0 -4 -4 -15 -9 0 0 0 0 0 0 0 0 0 0 0 0 0 0 0 0 0 0 0 0 0 0 0 0 0 0 0 0 -1 0 0 0 0 0 0 0 0 0 0 0
0 0 0 0 0 0 0 0 0 0 0 -15 -8 -1 -3 0 0 0 0 0 0 0 0 0 0 0 0 0 0 0 0 0 0 0 0 0 0 0 0 0 0 0 0 0 -4 0 0 0 0 0 0 0 0 0
0 0 0 0 0 0 0 0 0 0 0 0 -9 0 0 -2 0 0 0 0 0 0 0 0 0 0 0 0 0 0 0 0 0 0 0 0 0 -1 -2 0 0 0 0 0 0 -24 -2 0 0 0 0 0 0 0
0 0 0 0 0 0 0 0 0 0 0 0 0 0 0 -2 0 0 0 0 0 0 0 0 0 0 0 0 -1 0 0 0 0 0 0 0 0 0 0 0 0 0 0 0 0 0 -13 0 0 0 0 0 0 0
0 0 0 0 0 0 0 0 0 0 0 0 0 0 0 0 -1 0 0 -1 -2 0 0 0 0 0 0 0 -1 0 0 0 0 0 0 0 0 0 0 0 0 -1 -13 0 0 0 0 0 0 0 0 0 0 0
0 0 0 0 0 0 0 0 0 0 0 0 0 0 0 0 0 0 -1 0 0 0 0 0 0 0 -2 -2 0 0 0 0 0 0 0 0 0 0 0 0 -1 -9 0 0 0 0 0 0 0 0 0 0 0 0
0 0 0 0 0 0 0 0 0 0 0 0 0 0 0 0 -1 0 0 0 0 0 0 0 0 0 0 0 0 0 0 0 0 0 0 0 0 0 0 0 0 0 0 0 0 0 0 0 0 0 0 0 0 0
0 0 0 0 0 0 0 0 0 0 0 0 0 0 0 0 0 0 0 0 0 0 0 0 0 0 0 0 0 0 0 0 0 0 0 0 0 0 0 0 0 0 0 0 0 0 0 0 0 0 0 0 0 0
0 0 0 0 0 0 0 0 0 0 0 0 0 0 0 0 0 0 0 0 0 0 0 0 0 0 0 0 0 0 0 0 0 0 0 0 0 0 0 0 0 0 0 0 0 0 0 0 0 0 0 0 0 0
0 0 0 0 0 0 0 0 0 0 0 0 0 0 0 0 0 0 0 0 0 0 0 0 0 0 0 0 0 -2 0 0 0 0 0 0 0 0 0 0 0 0 0 0 0 0 0 0 0 0 0 0 0 0
0 0 0 0 0 0 0 0 0 0 0 0 0 0 0 0 0 0 0 0 0 0 0 0 0 0 0 0 0 0 0 0 0 0 -2 0 0 0 0 0 0 0 0 0 0 0 0 0 0 0 0 0 0 0
0 -4 -5 0 -4 0 0 0 0 0 0 0 0 0 0 0 0 0 0 0 0 0 0 0 0 0 0 0 0 0 0 0 0 -3 -12 0 0 0 0 0 0 0 0 0 0 0 0 0 0 0 0 0 0 0
0 0 0 -7 -2 0 0 0 0 0 0 0 0 0 0 0 0 0 0 0 0 0 0 0 0 0 0 0 0 0 0 0 0 0 0 0 0 0 0 0 0 0 0 0 0 0 0 0 0 0 0 0 0 0
0 0 0 0 0 0 0 0 0 0 0 0 0 0 0 0 0 0 0 0 0 0 0 0 0 0 0 0 0 0 0 0 0 0 0 0 0 0 0 0 0 0 0 0 0 0 0 0 0 0 0 0 0 0
0 0 -4 -7 0 0 0 0 0 0 0 0 0 0 0 0 0 0 0 0 0 0 0 0 0 0 0 0 0 0 0 0 0 0 0 0 0 0 0 0 0 0 0 0 0 0 0 0 0 0 0 0 0 0
0 -3 -1 0 0 0 0 0 0 0 0 0 0 0 0 0 0 0 0 0 0 0 0 0 0 0 0 0 0 0 0 0 0 0 0 0 0 0 0 0 0 0 0 0 0 0 0 0 0 0 0 0 0 0
-1 -4 0 -23 -12 0 0 0 0 0 0 0 0 0 0 0 0 0 0 0 0 0 0 0 0 0 0 0 0 0 0 0 0 0 0 0 0 0 0 0 0 0 0 0 0 0 0 0 0 0 0 0 0 0
0 -1 0 -25 0 0 0 0 0 0 0 0 0 0 0 0 0 0 0 0 0 0 0 0 0 0 0 0 0 0 0 0 0 0 0 0 0 0 0 0 0 0 0 0 0 0 0 0 0 0 0 0 0 0
0 0 0 -9 -5 -2 0 0 0 0 0 0 0 0 0 0 0 0 0 0 0 0 0 0 0 0 0 0 0 0 0 0 0 0 0 0 0 0 0 0 0 0 0 0 0 0 0 0 0 0 0 0 0 0
0 -10 -1 0 0 0 0 0 0 0 0 0 0 0 0 0 0 0 0 0 0 0 0 0 0 0 0 0 0 0 0 0 0 0 0 0 0 0 0 0 0 0 0 0 0 0 0 0 0 0 0 0 0 0
0 0 0 0 0 0 0 0 0 0 0 0 0 0 0 0 0 0 0 0 0 0 0 0 0 0 0 0 0 0 0 0 0 0 0 0 0 0 0 0 0 0 0 0 0 0 0 0 0 0 0 0 0 0
0 0 0 0 0 0 0 0 0 0 0 0 0 0 0 0 0 0 0 0 0 0 0 0 0 0 0 0 0 0 0 0 0 0 0 0 0 0 0 0 0 0 0 0 0 0 0 0 0 0 0 0 0 0
0 0 0 0 0 0 0 0 0 0 0 0 0 0 0 0 0 0 0 0 0 0 0 0 0 0 0 0 0 0 0 0 0 0 0 0 0 0 0 0 0 0 0 0 0 0 0 0 0 0 0 0 0 0
0 0 0 0 0 0 0 0 0 0 0 0 0 0 0 0 0 0 0 0 0 0 0 0 0 0 0 0 0 0 0 0 0 0 0 0 0 0 0 0 0 0 0 0 0 0 0 0 0 0 0 0 0 0
0 0 0 0 0 0 0 0 0 0 0 0 0 0 0 0 0 0 0 0 0 0 0 0 0 0 0 0 0 0 0 0 0 0 0 0 0 0 0 0 0 0 0 0 0 0 0 0 0 0 0 0 0 0
0 0 0 0 0 0 0 0 0 0 0 0 0 0 0 0 0 0 0 0 0 0 0 0 0 0 0 0 0 0 0 0 0 0 0 0 0 0 0 0 0 0 0 0 0 0 0 0 0 0 0 0 0 0
0 0 0 0 0 0 0 0 0 0 0 0 0 0 0 0 0 0 0 0 0 0 0 0 0 0 0 0 0 0 0 0 0 0 0 0 0 0 0 0 0 0 0 0 0 0 0 0 0 0 0 0 0 0
0 0 0 0 0 0 0 0 0 0 0 0 0 0 0 0 0 0 0 0 0 0 0 0 0 0 0 0 0 0 0 0 0 0 0 0 0 0 0 0 0 0 0 0 0 0 0 0 0 0 0 0 0 0
0 0 0 0 0 0 0 0 0 0 0 0 0 0 0 0 0 0 0 0 0 0 0 0 0 0 0 0 0 0 0 0 0 0 0 0 0 0 0 0 0 0 0 0 0 0 0 0 0 0 0 0 0 0
Wind_Speed
8 8 10 13 15 18 20 23 24 25 27 30 30 29 31 30 28 26 22 22 20 19 23 19 21 23 24 21 21 22 20 20 21 21 19 19 19 18 18 16 12 8 12 16 17 19 22 15 14 17 18 16 13 7
7 9 11 12 15 17 20 22 24 24 25 27 28 28 29 29 28 25 23 18 16 16 15 24 25 26 25 21 22 23 20 20 19 20 21 24 24 22 18 19 15 16 12 16 12 17 21 10 18 14 12 12 12 8
9 8 10 12 14 17 19 20 23 24 24 25 25 26 27 29 30 24 21 20 21 18 18 17 17 17 14 17 17 22 21 19 19 19 21 22 25 23 28 30 17 20 13 21 20 20 20 19 13 14 13 11 11 9
8 9 9 12 15 16 18 19 21 22 24 23 24 25 25 26 27 23 22 21 20 19 18 17 18 22 21 18 17 17 19 18 19 21 24 24 26 24 27 28 30 19 17 21 28 27 25 20 14 11 12 10 10 10
9 9 11 13 15 17 18 19 20 22 24 23 24 24 24 24 25 21 23 21 22 21 17 4 17 15 17 15 15 16 18 20 21 22 23 27 26 31 33 36 35 25 23 23 26 23 23 24 15 8 8 9 11 12
9 10 12 14 16 17 18 19 20 22 24 24 24 24 27 24 21 19 21 21 25 21 20 18 16 15 17 16 15 13 12 14 16 18 20 21 22 27 31 33 31 33 32 28 26 21 19 17 15 10 8 10 13 15
8 10 12 14 16 17 18 20 22 22 24 25 25 23 22 22 22 22 23 18 19 17 19 19 18 18 18 18 17 16 15 17 17 20 21 23 24 23 31 40 36 33 30 36 35 17 18 14 15 13 12 15 17 19
9 11 12 13 15 16 18 20 21 21 23 23 24 23 23 26 23 21 21 19 21 20 20 21 20 19 21 21 20 17 18 18 17 17 17 18 20 21 35 35 31 39 34 33 23 20 18 14 13 15 16 18 19 21
9 10 10 12 14 15 17 19 20 21 22 24 25 25 24 25 26 21 21 21 23 21 19 22 24 22 24 23 21 19 18 20 17 15 16 16 22 26 28 26 26 27 23 27 21 15 15 15 15 16 16 18 20 22
9 9 10 10 12 14 16 18 19 19 20 23 22 24 26 23 19 20 22 23 23 22 22 24 24 27 26 25 22 21 18 19 19 14 18 17 18 7 12 6 13 16 24 24 22 19 19 17 17 17 18 20 22 23
7 7 8 8 10 12 14 16 18 19 21 20 22 23 19 18 21 22 23 26 25 24 24 25 26 31 26 24 24 21 21 19 19 16 17 19 19 25 22 12 19 20 18 21 20 18 16 14 15 18 19 21 22 24
5 6 7 7 9 11 13 16 18 20 19 18 19 19 19 21 23 25 24 20 23 28 28 29 31 29 25 22 22 21 20 18 19 16 16 18 26 19 12 7 15 20 21 20 17 14 14 13 15 17 18 19 21 23
6 7 7 7 8 10 12 15 18 18 17 18 19 20 21 20 23 26 30 24 20 19 18 29 35 27 24 21 23 21 20 20 22 17 17 22 29 23 16 8 18 18 15 14 12 13 14 13 13 14 16 18 20 22
5 6 7 6 7 9 12 15 17 17 17 18 18 20 19 20 19 20 21 21 18 18 21 16 21 27 24 23 22 23 22 22 20 20 22 29 31 28 23 22 20 19 17 15 15 14 13 13 14 16 18 20 21 22
6 6 5 5 6 8 11 15 19 20 18 17 16 18 16 15 15 17 17 17 18 19 21 22 17 19 26 24 21 23 21 19 17 22 28 30 30 27 25 23 21 19 18 16 15 14 14 14 15 16 18 19 21 22
6 3 6 4 6 8 12 16 21 19 18 17 16 16 14 16 15 16 17 16 16 19 21 21 19 20 17 26 25 23 25 20 28 32 32 31 30 28 25 23 21 19 17 16 15 15 15 15 16 17 18 20 21 22
1 10 1 4 6 9 14 19 20 20 18 17 17 14 13 13 14 16 16 17 16 20 20 20 19 20 19 17 27 24 30 32 34 35 33 31 31 29 26 22 22 19 16 15 15 14 15 18 17 18 20 21 21 22
11 2 5 5 6 12 17 19 20 19 20 19 19 18 15 15 14 15 16 15 17 18 19 19 19 19 19 23 28 33 34 36 34 34 34 32 30 28 26 25 22 22 21 20 20 20 19 20 21 20 22 23 22 22
4 3 4 4 8 16 19 19 19 21 20 20 20 19 17 17 16 16 15 15 15 17 19 19 19 20 21 21 27 40 39 39 40 39 37 36 34 32 29 26 25 23 22 22 22 22 20 21 22 22 23 23 24 24
1 1 2 6 13 18 19 18 18 20 22 19 19 21 20 18 18 18 17 16 17 20 21 22 22 23 26 30 32 35 41 41 41 42 40 37 35 33 33 30 27 26 25 24 23 22 22 21 21 21 22 23 24 25
6 8 9 13 18 19 19 17 17 18 20 21 22 23 22 21 21 21 22 18 20 23 26 25 26 26 27 29 33 37 41 39 40 40 42 42 37 36 36 33 30 26 26 25 24 24 23 23 22 21 22 23 23 23
12 9 16 17 20 20 19 17 20 21 22 24 26 25 26 27 26 24 21 22 27 28 27 27 26 27 29 32 35 34 36 36 37 37 39 40 41 39 38 35 33 33 30 28 26 25 24 22 21 21 22 23 23 24
10 14 18 20 20 20 22 18 22 22 24 25 26 27 27 26 25 24 28 28 30 28 25 24 23 22 25 32 30 30 29 30 33 35 35 36 36 35 35 35 33 33 34 33 29 26 23 21 20 22 23 24 24 25
16 19 20 22 20 24 20 21 21 23 25 25 26 30 29 28 27 31 35 34 30 29 23 19 18 20 23 24 27 28 29 30 33 34 34 34 34 33 33 34 32 30 31 30 28 25 23 21 21 22 23 24 25 26
20 21 19 21 18 21 23 25 26 26 28 27 29 30 28 27 31 33 34 31 27 25 25 17 13 10 21 26 27 29 31 32 35 36 36 32 33 33 33 31 30 29 26 25 26 23 22 21 22 22 23 25 26 27
18 16 16 18 19 21 23 28 26 26 26 28 27 26 25 27 30 30 25 25 24 24 20 14 15 26 31 31 35 38 39 35 33 37 38 34 31 31 31 30 30 29 22 22 24 24 24 23 23 24 25 24 24 25
18 17 16 16 18 20 22 23 23 25 27 27 25 24 25 27 26 23 21 18 17 18 18 24 31 35 39 41 43 43 42 38 36 37 37 35 34 30 28 30 30 27 23 20 20 20 22 23 24 23 23 24 24 25
19 18 21 20 21 21 24 24 25 26 24 20 20 22 22 20 22 20 20 22 22 26 30 35 39 42 43 44 44 44 44 42 40 38 39 39 37 35 27 23 27 28 26 23 22 20 21 23 24 25 26 27 28 26
23 20 18 21 21 22 24 24 24 21 17 17 20 22 22 19 22 24 24 26 29 36 41 41 42 42 42 42 41 41 40 38 38 38 38 37 36 33 26 23 24 20 19 21 22 24 23 23 24 24 25 26 26 26
23 16 22 21 23 25 22 18 23 20 17 16 19 21 18 14 10 12 11 13 34 36 38 39 38 39 39 40 40 39 36 33 32 35 35 34 30 28 27 26 25 22 20 19 19 20 20 21 22 24 25 26 27 28
14 14 20 21 24 21 19 19 20 20 20 20 20 19 16 33 43 23 12 11 14 22 39 37 35 34 36 36 35 35 35 29 27 30 32 33 33 32 28 24 21 18 18 18 19 20 20 22 23 24 26 28 29 31
13 14 16 19 20 21 21 21 22 21 22 21 19 21 23 27 46 43 28 24 24 27 37 36 34 34 33 33 32 29 28 30 31 30 30 30 30 25 20 19 17 16 16 16 17 18 20 22 24 25 27 29 30 31
13 14 17 21 23 24 22 20 23 24 22 21 20 21 20 22 35 33 27 22 25 35 36 36 34 33 32 31 29 27 26 23 21 22 22 22 22 21 20 19 18 18 18 19 20 21 24 26 27 28 28 29 30 31
Wind_Direction
108 80 59 54 38 33 26 21 20 24 25 25 24 22 17 20 24 26 28 27 18 350 311 306 292 281 276 279 277 279 292 294 291 288 296 298 299 301 303 309 322 340 317 300 290 292 282 297 298 282 283 292 311 340
106 89 72 52 46 40 35 30 26 30 30 29 27 24 20 22 21 27 22 28 26 10 350 310 288 277 274 282 282 278 285 290 299 293 292 277 275 292 304 302 306 307 307 301 307 294 282 326 298 311 314 320 315 343
109 84 62 56 52 48 44 40 38 37 35 32 32 27 22 22 18 25 31 34 30 22 359 339 313 300 313 295 292 280 286 297 297 307 297 296 286 297 277 272 304 294 304 287 294 292 293 293 311 312 316 321 325 330
111 89 65 59 55 54 55 50 48 47 43 41 38 33 26 24 23 31 35 38 38 36 21 351 315 296 298 304 295 287 291 302 309 308 296 299 296 303 293 289 280 298 297 287 278 283 285 297 305 317 313 316 318 319
111 85 73 61 57 59 62 55 54 51 47 47 43 39 30 27 27 39 41 47 43 43 41 64 284 303 315 343 313 292 291 297 305 306 304 298 302 295 292 285 279 283 286 282 281 293 288 288 305 305 309 313 314 313
110 93 80 69 62 63 62 59 61 58 54 50 46 40 32 28 35 49 38 50 33 50 43 29 332 317 328 343 341 326 318 317 320 322 320 320 319 307 299 294 290 275 275 281 281 287 297 300 300 300 304 311 311 309
111 92 80 73 69 64 61 56 57 60 53 48 43 44 43 51 50 40 36 45 56 73 43 351 339 342 339 342 336 328 318 318 320 321 322 324 327 322 305 291 289 284 282 277 272 278 282 287 293 295 299 305 307 306
113 96 81 68 66 63 58 56 57 60 51 50 47 57 67 61 68 48 48 57 41 49 39 357 329 340 327 324 330 324 324 324 333 341 351 352 354 345 320 310 291 270 275 281 266 267 275 279 288 294 300 301 302 306
114 95 81 69 64 52 54 50 60 57 51 50 53 63 65 63 55 60 49 58 50 40 9 350 331 317 328 325 319 326 332 332 354 6 6 11 359 350 343 333 305 270 264 279 267 271 276 276 281 290 295 299 303 305
113 97 86 68 59 54 44 47 59 57 53 51 58 53 47 58 68 74 62 29 22 23 15 355 356 327 335 329 313 316 334 336 348 20 11 13 8 5 20 82 144 251 246 259 266 266 271 272 279 287 294 299 301 304
114 94 79 62 49 38 34 36 44 47 45 49 45 46 58 64 58 57 58 48 24 1 2 357 350 326 334 327 318 316 321 336 347 18 19 16 25 18 17 59 292 269 267 262 276 278 276 279 283 291 298 301 303 305
123 103 86 71 49 33 28 27 26 34 39 46 49 55 55 49 38 33 45 56 47 26 359 344 342 338 333 331 320 316 318 327 341 9 11 17 6 29 54 95 198 236 276 286 276 283 282 292 296 298 304 307 308 309
133 113 93 74 52 31 27 19 19 30 44 41 36 36 37 40 31 21 13 29 39 42 42 9 330 341 336 331 315 311 313 311 330 347 359 342 313 318 37 104 297 263 308 268 311 301 291 296 303 307 315 322 321 320
143 117 93 66 41 23 20 15 14 20 24 21 23 17 25 26 26 24 25 24 31 30 24 28 25 336 333 326 317 302 307 317 310 322 327 319 313 311 299 316 309 300 307 311 300 309 304 293 297 310 319 324 324 325
133 115 86 53 34 13 3 0 357 359 12 16 17 9 16 26 24 23 26 25 23 22 20 22 32 34 329 320 319 309 304 308 321 321 315 313 316 318 319 322 328 320 313 306 302 301 297 295 305 317 326 332 337 337
129 74 319 40 30 14 356 348 344 357 5 5 8 5 11 6 5 10 10 13 20 15 13 17 21 23 30 321 310 304 299 300 309 310 307 310 311 320 322 313 320 322 328 323 313 308 300 308 319 326 330 333 336 336
190 309 125 78 37 9 345 335 343 351 358 0 355 1 356 357 353 356 1 2 9 1 2 5 7 7 6 10 305 302 296 302 305 304 308 308 306 309 315 317 298 316 323 322 322 313 303 302 314 318 318 322 323 327
298 347 109 90 9 346 336 336 338 342 343 346 345 345 345 341 346 348 351 356 357 356 354 353 351 347 348 344 327 303 303 302 306 306 304 303 306 308 308 301 306 292 286 295 298 290 294 295 299 314 313 313 316 327
295 116 108 62 342 331 332 331 335 331 336 340 343 340 340 337 334 336 341 348 349 348 345 342 338 333 331 330 324 307 300 301 297 298 299 298 293 294 299 302 295 296 297 291 292 296 307 309 307 310 312 311 306 311
6 41 13 344 327 327 327 328 333 330 331 338 339 337 337 337 336 336 335 334 334 333 330 327 320 320 316 318 316 312 299 296 296 292 292 296 293 288 286 289 294 290 291 294 296 301 305 309 311 313 314 313 309 311
320 320 321 318 314 320 325 329 328 330 331 329 332 333 331 332 327 325 324 324 321 322 320 315 311 313 316 317 313 307 293 296 293 293 289 287 291 287 283 282 284 290 286 290 294 297 301 303 308 313 314 314 316 319
307 311 307 309 313 316 318 322 321 324 323 322 322 325 321 321 323 323 327 318 316 317 316 318 316 318 318 313 306 302 292 293 298 301 296 289 284 284 280 281 278 277 281 285 288 293 297 301 306 309 312 314 317 318
310 305 308 309 309 310 312 317 314 316 317 321 324 322 322 322 324 327 320 320 321 320 317 315 319 323 322 301 294 297 304 307 305 309 311 302 293 287 283 281 280 277 278 281 284 287 292 299 303 306 308 311 314 317
309 301 301 303 301 306 314 309 314 316 318 318 317 316 318 320 324 319 317 320 321 322 320 315 317 320 317 305 295 298 310 313 311 312 315 314 299 292 288 284 284 281 281 284 286 286 288 293 298 302 306 308 310 312
298 298 302 301 308 308 305 306 308 311 311 313 314 315 319 325 321 320 322 326 332 334 330 329 329 334 305 294 298 304 314 314 306 308 308 316 307 298 292 288 285 283 285 285 284 285 288 292 296 301 304 305 306 307
293 298 300 305 306 307 308 310 311 311 313 313 314 321 326 325 324 324 330 334 336 336 336 343 336 295 281 289 291 295 299 312 315 307 298 309 309 306 296 293 288 284 288 286 285 285 287 291 295 298 302 306 309 308
291 297 304 308 314 315 314 317 318 317 315 314 318 321 322 322 325 331 335 341 349 352 341 317 298 282 280 284 289 292 296 303 306 302 303 303 298 302 302 291 287 289 294 293 291 292 292 293 295 300 304 307 306 305
298 295 291 299 304 309 309 312 314 314 316 319 322 319 324 325 327 334 335 329 325 325 320 308 297 288 281 280 284 289 289 291 291 294 293 284 271 264 295 304 294 291 293 295 296 296 296 296 297 298 300 301 303 304
294 298 300 296 303 307 306 305 308 312 320 316 313 314 316 317 320 320 323 323 320 308 278 277 279 296 292 293 290 290 290 293 288 277 274 273 280 287 304 304 302 305 304 302 300 298 297 297 298 299 302 304 306 306
293 295 296 295 296 299 303 306 311 319 319 315 315 317 315 308 293 315 301 296 265 264 267 270 271 280 279 282 282 286 295 300 296 279 275 272 292 306 305 303 303 306 307 306 305 305 305 304 303 304 305 305 305 305
300 291 298 297 298 306 312 315 316 317 319 318 318 311 290 313 290 315 270 277 268 255 270 265 265 271 278 278 279 280 285 309 304 290 283 277 283 297 305 311 314 317 316 312 309 307 306 305 305 305 305 304 304 303
300 294 298 301 307 312 317 317 318 319 320 319 316 318 319 317 276 292 315 321 323 322 274 267 264 273 285 286 281 269 262 275 294 299 296 297 297 313 324 325 327 327 326 323 319 315 312 309 308 308 308 307 307 307
311 306 305 307 310 312 316 318 321 321 324 326 328 323 324 327 306 301 315 320 321 304 296 285 281 284 285 287 285 282 293 322 334 333 331 325 323 325 327 330 331 330 326 323 320 318 314 311 311 311 312 311 310 310